• In Germany
  • List of Countries
  • For 7 days
  • Water Temperature
  • Satellite Maps
  • Weather Map
  • Weather Widgets
  • user-avatar
    Login

    Hourly Weather Pointe-Noire

    Today, 25 September, Monday

    Time Temperature Precipitation Wind Pressure Humidity
    00:00 +23°C° 0 mm 1 mps 721 mmHg 98%
    01:00 +23°C° 0 mm 1 mps 721 mmHg 98%
    02:00 +23°C° 0.1 mm 1 mps 721 mmHg 98%
    03:00 +24°C° 0.1 mm 1 mps 721 mmHg 97%
    04:00 +24°C° 0.1 mm 1 mps 721 mmHg 97%
    05:00 +24°C° 0 mm 1 mps 721 mmHg 97%
    06:00 +22°C° 0 mm 0 mps 721 mmHg 96%
    07:00 +22°C° 0 mm 0 mps 722 mmHg 95%
    08:00 +23°C° 0 mm 0 mps 722 mmHg 89%
    09:00 +27°C° 0 mm 1 mps 722 mmHg 83%
    10:00 +28°C° 0 mm 1 mps 722 mmHg 76%
    11:00 +30°C° 0.2 mm 1 mps 722 mmHg 69%
    12:00 +31°C° 0.2 mm 1 mps 721 mmHg 62%
    13:00 +33°C° 0 mm 1 mps 721 mmHg 56%
    14:00 +32°C° 0.4 mm 1 mps 720 mmHg 60%
    15:00 +32°C° 0.4 mm 1 mps 720 mmHg 63%
    16:00 +31°C° 0.4 mm 1 mps 719 mmHg 66%
    17:00 +29°C° 0.2 mm 1 mps 719 mmHg 74%
    18:00 +28°C° 0.2 mm 1 mps 720 mmHg 81%
    19:00 +26°C° 0.2 mm 1 mps 720 mmHg 89%
    20:00 +25°C° 0.8 mm 1 mps 720 mmHg 92%
    21:00 +25°C° 0.8 mm 1 mps 721 mmHg 95%
    22:00 +24°C° 0.8 mm 1 mps 721 mmHg 97%
    23:00 +24°C° 0.2 mm 1 mps 721 mmHg 98%

    Tomorrow, 26 September, Tuesday

    Time Temperature Precipitation Wind Pressure Humidity
    00:00 +24°C° 0.2 mm 1 mps 721 mmHg 98%
    01:00 +24°C° 0.2 mm 1 mps 721 mmHg 98%
    02:00 +24°C° 0.1 mm 1 mps 721 mmHg 98%
    03:00 +24°C° 0.1 mm 1 mps 720 mmHg 98%
    04:00 +21°C° 0.1 mm 0 mps 720 mmHg 98%
    05:00 +21°C° 0.3 mm 0 mps 720 mmHg 98%
    06:00 +21°C° 0.3 mm 0 mps 720 mmHg 98%
    07:00 +21°C° 0.3 mm 0 mps 720 mmHg 99%
    08:00 +24°C° 0.5 mm 1 mps 721 mmHg 96%
    09:00 +25°C° 0.5 mm 1 mps 721 mmHg 94%
    10:00 +26°C° 0.5 mm 1 mps 722 mmHg 92%
    11:00 +27°C° 0.2 mm 1 mps 721 mmHg 85%
    12:00 +28°C° 0.2 mm 1 mps 720 mmHg 77%
    13:00 +30°C° 0.2 mm 2 mps 720 mmHg 69%
    14:00 +30°C° 0.3 mm 2 mps 719 mmHg 70%
    15:00 +30°C° 0.3 mm 1 mps 719 mmHg 71%
    16:00 +30°C° 0.3 mm 1 mps 718 mmHg 72%
    17:00 +28°C° 0.8 mm 1 mps 719 mmHg 79%
    18:00 +26°C° 0.8 mm 1 mps 719 mmHg 86%
    19:00 +25°C° 0.8 mm 1 mps 719 mmHg 94%
    20:00 +24°C° 0.5 mm 1 mps 720 mmHg 95%
    21:00 +24°C° 0.5 mm 1 mps 721 mmHg 97%
    22:00 +24°C° 0.5 mm 1 mps 721 mmHg 98%
    23:00 +24°C° 0.1 mm 1 mps 721 mmHg 98%

    Day after tomorrow, 27 September, Wednesday

    Time Temperature Precipitation Wind Pressure Humidity
    00:00 +23°C° 0.1 mm 1 mps 721 mmHg 98%
    01:00 +23°C° 0.1 mm 1 mps 721 mmHg 98%
    02:00 +23°C° 0.1 mm 1 mps 720 mmHg 98%
    03:00 +23°C° 0.1 mm 1 mps 720 mmHg 98%
    04:00 +23°C° 0.1 mm 1 mps 720 mmHg 98%
    05:00 +23°C° 0.1 mm 1 mps 720 mmHg 98%
    06:00 +24°C° 0.1 mm 1 mps 721 mmHg 97%
    07:00 +22°C° 0.1 mm 0 mps 721 mmHg 97%
    08:00 +25°C° 0.1 mm 1 mps 722 mmHg 92%
    09:00 +26°C° 0.1 mm 1 mps 722 mmHg 87%
    10:00 +27°C° 0.1 mm 1 mps 722 mmHg 83%
    11:00 +28°C° 0.2 mm 1 mps 722 mmHg 78%
    12:00 +27°C° 0.2 mm 0 mps 721 mmHg 73%
    13:00 +29°C° 0.2 mm 0 mps 720 mmHg 68%
    14:00 +28°C° 0.6 mm 0 mps 719 mmHg 73%
    15:00 +27°C° 0.6 mm 0 mps 719 mmHg 77%
    16:00 +27°C° 0.6 mm 0 mps 718 mmHg 82%
    17:00 +25°C° 0.7 mm 0 mps 719 mmHg 86%
    18:00 +24°C° 0.7 mm 0 mps 720 mmHg 91%
    19:00 +23°C° 0.7 mm 0 mps 720 mmHg 96%
    20:00 +22°C° 1.2 mm 0 mps 721 mmHg 96%
    21:00 +22°C° 1.2 mm 0 mps 721 mmHg 97%
    22:00 +22°C° 1.2 mm 0 mps 722 mmHg 98%
    23:00 +22°C° 0.3 mm 0 mps 722 mmHg 98%

    28 September, Thursday

    Time Temperature Precipitation Wind Pressure Humidity
    00:00 +21°C° 0.3 mm 0 mps 721 mmHg 98%
    01:00 +23°C° 0.3 mm 1 mps 721 mmHg 99%
    02:00 +21°C° 0 mm 0 mps 721 mmHg 99%
    03:00 +21°C° 0 mm 0 mps 720 mmHg 99%
    04:00 +21°C° 0 mm 0 mps 720 mmHg 99%
    05:00 +21°C° 0 mm 0 mps 721 mmHg 99%
    06:00 +21°C° 0 mm 0 mps 721 mmHg 98%
    07:00 +21°C° 0 mm 0 mps 722 mmHg 98%
    08:00 +24°C° 0 mm 0 mps 722 mmHg 89%
    09:00 +26°C° 0 mm 0 mps 723 mmHg 79%
    10:00 +28°C° 0 mm 0 mps 723 mmHg 69%
    11:00 +29°C° 0.2 mm 0 mps 722 mmHg 65%
    12:00 +31°C° 0.2 mm 0 mps 721 mmHg 61%
    13:00 +32°C° 0.2 mm 0 mps 721 mmHg 57%
    14:00 +33°C° 1.6 mm 1 mps 720 mmHg 65%
    15:00 +31°C° 1.6 mm 1 mps 720 mmHg 73%
    16:00 +30°C° 1.6 mm 1 mps 719 mmHg 81%
    17:00 +28°C° 0.7 mm 1 mps 719 mmHg 86%
    18:00 +27°C° 0.7 mm 1 mps 720 mmHg 91%
    19:00 +25°C° 0.7 mm 1 mps 720 mmHg 95%
    20:00 +25°C° 0.5 mm 1 mps 721 mmHg 96%
    21:00 +24°C° 0.5 mm 1 mps 722 mmHg 97%
    22:00 +24°C° 0.5 mm 1 mps 722 mmHg 98%
    23:00 +24°C° 0.4 mm 1 mps 722 mmHg 98%

    29 September, Friday

    Time Temperature Precipitation Wind Pressure Humidity
    00:00 +24°C° 0.4 mm 1 mps 722 mmHg 98%
    01:00 +24°C° 0.4 mm 1 mps 721 mmHg 99%
    02:00 +24°C° 0 mm 1 mps 721 mmHg 99%
    03:00 +24°C° 0 mm 1 mps 721 mmHg 98%
    04:00 +24°C° 0 mm 1 mps 720 mmHg 98%
    05:00 +24°C° 0 mm 1 mps 721 mmHg 98%
    06:00 +24°C° 0 mm 1 mps 721 mmHg 98%
    07:00 +24°C° 0 mm 1 mps 721 mmHg 98%
    08:00 +25°C° 0 mm 1 mps 722 mmHg 93%
    09:00 +26°C° 0 mm 1 mps 722 mmHg 88%
    10:00 +27°C° 0 mm 1 mps 722 mmHg 83%
    11:00 +28°C° 0 mm 1 mps 721 mmHg 77%
    12:00 +30°C° 0 mm 1 mps 720 mmHg 70%
    13:00 +31°C° 0 mm 2 mps 719 mmHg 64%
    14:00 +31°C° 0.2 mm 2 mps 719 mmHg 65%
    15:00 +31°C° 0.2 mm 1 mps 719 mmHg 67%
    16:00 +31°C° 0.2 mm 1 mps 719 mmHg 68%
    17:00 +29°C° 2.5 mm 1 mps 719 mmHg 77%
    18:00 +27°C° 2.5 mm 1 mps 720 mmHg 87%
    19:00 +25°C° 2.5 mm 1 mps 720 mmHg 96%
    20:00 +25°C° 0.6 mm 1 mps 721 mmHg 97%
    21:00 +24°C° 0.6 mm 1 mps 721 mmHg 98%
    22:00 +24°C° 0.6 mm 1 mps 722 mmHg 98%
    23:00 +24°C° 0 mm 1 mps 721 mmHg 98%

    30 September, Saturday

    Time Temperature Precipitation Wind Pressure Humidity
    00:00 +24°C° 0 mm 1 mps 721 mmHg 99%
    01:00 +24°C° 0 mm 1 mps 720 mmHg 99%
    02:00 +24°C° 0 mm 1 mps 720 mmHg 99%
    03:00 +23°C° 0 mm 1 mps 720 mmHg 99%
    04:00 +23°C° 0 mm 1 mps 720 mmHg 99%
    05:00 +24°C° 0 mm 1 mps 720 mmHg 98%
    06:00 +24°C° 0 mm 1 mps 721 mmHg 98%
    07:00 +24°C° 0 mm 1 mps 721 mmHg 97%
    08:00 +25°C° 0 mm 1 mps 721 mmHg 92%
    09:00 +26°C° 0 mm 1 mps 722 mmHg 86%
    10:00 +27°C° 0 mm 1 mps 722 mmHg 80%
    11:00 +29°C° 0 mm 1 mps 721 mmHg 75%
    12:00 +30°C° 0 mm 1 mps 720 mmHg 70%
    13:00 +31°C° 0 mm 1 mps 719 mmHg 65%
    14:00 +31°C° 0.1 mm 1 mps 719 mmHg 65%
    15:00 +31°C° 0.1 mm 1 mps 719 mmHg 65%
    16:00 +31°C° 0.1 mm 1 mps 718 mmHg 64%
    17:00 +29°C° 0.1 mm 1 mps 719 mmHg 72%
    18:00 +28°C° 0.1 mm 1 mps 719 mmHg 81%
    19:00 +26°C° 0.1 mm 1 mps 720 mmHg 89%
    20:00 +25°C° 0.3 mm 1 mps 720 mmHg 91%
    21:00 +25°C° 0.3 mm 1 mps 721 mmHg 94%
    22:00 +24°C° 0.3 mm 1 mps 721 mmHg 97%
    23:00 +24°C° 0.2 mm 1 mps 721 mmHg 97%
    Show more